Modesto, CA

8:37 PM PDT on May 27, 2018 (GMT -0700)
Modesto City-County-Sham

Weather History for KMOD - June, 2013

Change the Weather History Date:

Saturday, June 8, 2013

  Actual Average Record
Temperature  
Mean Temperature 88 °F -  
Max Temperature 107 °F 88 °F 107 °F (2013)
Min Temperature 68 °F 59 °F 45 °F (1988)
Degree Days  
Heating Degree Days 0 0  
Month to date heating degree days 0 0  
Since 1 June heating degree days 0 0  
Since 1 July heating degree days 2148 2168  
Cooling Degree Days 23 8  
Month to date cooling degree days 110 62  
Year to date cooling degree days 356 261  
Since 1 June cooling degree days 110 62  
Growing Degree Days 38 (Base 50)    
Moisture  
Dew Point 58 °F    
Average Humidity 47    
Maximum Humidity 73    
Minimum Humidity 21    
Precipitation  
Precipitation 0.00 in 0.01 in 1.14 in (2000)
Month to date precipitation 0.00 0.06  
Year to date precipitation 3.14 8.69  
Since 1 July precipitation 9.02  
Snow  
Snow 0.00 in - - ()
Month to date snowfall 0.0  
Since 1 June snowfall 0.0  
Since 1 July snowfall 0.0  
Snow Depth -    
Sea Level Pressure  
Sea Level Pressure 29.66 in    
Wind  
Wind Speed 5 mph (NW)    
Max Wind Speed 16 mph    
Max Gust Speed 23 mph    
Visibility 10 miles    
Events      
T = Trace of Precipitation, MM = Missing Value Source: NWS Daily Summary

Daily Weather History Graph

Daily Weather History Graph

Search for Another Location

Airport or City:

Astronomy

Jun. 08, 2013 Rise Set
Actual Time 5:42 AM PDT 8:24 PM PDT
Civil Twilight 5:11 AM PDT 8:55 PM PDT
Nautical Twilight 4:32 AM PDT 9:33 PM PDT
Astronomical Twilight 3:48 AM PDT 10:17 PM PDT
Moon 5:52 AM PDT (6/8) 8:31 PM PDT (6/8)
Length of Visible Light 15h 43m
Length of Day
14h 41m
New Moon, 0% of the Moon is Illuminated
Jun 8
New Moon
Jun 16
First Quarter
Jun 23
Full
Jun 29
Last Quarter
Jul 8
New

Hourly Weather History & Observations

Time (PDT) Temp. Heat Index Dew Point Humidity Pressure Visibility Wind Dir Wind Speed Gust Speed Precip Events Conditions
12:53 AM 75.0 °F - 61.0 °F 62% 29.67 in 10.0 mi Calm Calm - N/A   Clear
1:53 AM 77.0 °F - 55.9 °F 48% 29.65 in 10.0 mi Calm Calm - N/A   Clear
2:53 AM 73.9 °F - 57.0 °F 55% 29.66 in 10.0 mi Calm Calm - N/A   Clear
3:53 AM 71.1 °F - 59.0 °F 66% 29.67 in 10.0 mi Calm Calm - N/A   Clear
4:53 AM 72.0 °F - 57.0 °F 59% 29.67 in 10.0 mi WSW 3.5 mph - N/A   Clear
5:53 AM 70.0 °F - 61.0 °F 73% 29.68 in 10.0 mi Calm Calm - N/A   Clear
6:53 AM 73.0 °F - 57.9 °F 59% 29.69 in 10.0 mi Calm Calm - N/A   Clear
7:53 AM 80.1 °F 80.2 °F 55.9 °F 43% 29.70 in 10.0 mi Calm Calm - N/A   Clear
8:53 AM 86.0 °F 84.7 °F 55.9 °F 36% 29.70 in 10.0 mi NNW 8.1 mph - N/A   Clear
9:53 AM 89.1 °F 88.8 °F 60.1 °F 38% 29.70 in 10.0 mi WNW 12.7 mph - N/A   Clear
10:53 AM 91.0 °F 90.5 °F 60.1 °F 35% 29.69 in 10.0 mi WNW 8.1 mph - N/A   Clear
11:53 AM 96.1 °F 96.9 °F 62.1 °F 32% 29.68 in 10.0 mi WNW 8.1 mph - N/A   Clear
12:53 PM 100.0 °F 99.7 °F 57.9 °F 25% 29.67 in 10.0 mi North 12.7 mph - N/A   Clear
1:53 PM 100.9 °F 102.1 °F 61.0 °F 27% 29.66 in 10.0 mi WNW 8.1 mph - N/A   Clear
2:53 PM 105.1 °F 104.4 °F 57.0 °F 20% 29.64 in 10.0 mi NW 9.2 mph 16.1 mph N/A   Clear
3:53 PM 106.0 °F 106.4 °F 57.9 °F 21% 29.62 in 10.0 mi WNW 12.7 mph 18.4 mph N/A   Clear
4:53 PM 106.0 °F 105.8 °F 57.0 °F 20% 29.61 in 10.0 mi North 13.8 mph 23.0 mph N/A   Clear
5:53 PM 105.1 °F 105.0 °F 57.9 °F 21% 29.60 in 10.0 mi NNW 12.7 mph - N/A   Clear
6:53 PM 102.9 °F 104.2 °F 61.0 °F 25% 29.59 in 10.0 mi NW 13.8 mph - N/A   Clear
7:53 PM 97.0 °F 97.4 °F 61.0 °F 30% 29.61 in 10.0 mi NW 13.8 mph - N/A   Clear
8:53 PM 90.0 °F 89.1 °F 59.0 °F 35% 29.62 in 10.0 mi NW 12.7 mph - N/A   Clear
9:53 PM 84.9 °F 83.7 °F 55.9 °F 37% 29.65 in 10.0 mi North 10.4 mph - N/A   Clear
10:53 PM 81.0 °F 80.8 °F 55.9 °F 42% 29.66 in 10.0 mi North 9.2 mph - N/A   Clear
11:53 PM 77.0 °F - 57.0 °F 50% 29.69 in 10.0 mi NE 5.8 mph - N/A   Clear